Time,TemperatureF,DewpointF,PressureIn,WindDirection,WindDirectionDegrees,WindSpeedMPH,WindSpeedGustMPH,Humidity,HourlyPrecipIn,Conditions,Clouds,dailyrainin,SoftwareType,DateUTC
2013-02-02 00:00:00,25.7,17.9,30.37,ENE,74,0.0,0.0,72,0.00,,---,0.00,VWS V14.00,2013-02-02 05:00:00,
2013-02-02 00:01:00,25.6,17.8,30.37,ENE,74,0.0,0.0,72,0.00,,---,0.00,VWS V14.00,2013-02-02 05:01:00,
2013-02-02 00:06:00,25.6,17.5,30.37,ENE,74,0.0,0.0,71,0.00,,---,0.00,VWS V14.00,2013-02-02 05:06:00,
2013-02-02 00:11:00,25.6,16.2,30.37,ENE,74,0.0,0.0,67,0.00,,---,0.00,VWS V14.00,2013-02-02 05:11:00,
2013-02-02 00:16:00,25.7,15.9,30.37,ENE,74,0.0,0.0,66,0.00,,---,0.00,VWS V14.00,2013-02-02 05:16:00,
2013-02-02 00:21:00,25.8,16.0,30.37,ENE,74,0.0,0.0,66,0.00,,---,0.00,VWS V14.00,2013-02-02 05:21:00,
2013-02-02 00:26:00,25.9,15.8,30.36,ENE,74,0.0,0.0,65,0.00,,---,0.00,VWS V14.00,2013-02-02 05:26:00,
2013-02-02 00:31:00,25.9,15.8,30.37,ENE,74,0.0,0.0,65,0.00,,---,0.00,VWS V14.00,2013-02-02 05:31:00,
2013-02-02 00:36:00,25.9,16.1,30.37,ENE,74,0.0,0.0,66,0.00,,---,0.00,VWS V14.00,2013-02-02 05:36:00,
2013-02-02 00:41:00,26.0,15.9,30.37,ENE,74,0.0,0.0,65,0.00,,---,0.00,VWS V14.00,2013-02-02 05:41:00,
2013-02-02 00:46:00,26.0,16.2,30.37,ENE,74,0.0,0.0,66,0.00,,---,0.00,VWS V14.00,2013-02-02 05:46:00,
2013-02-02 00:51:00,26.0,15.9,30.36,ENE,74,0.0,0.0,65,0.00,,---,0.00,VWS V14.00,2013-02-02 05:51:00,
2013-02-02 00:56:00,26.0,16.9,30.37,ENE,74,0.0,0.0,68,0.00,,---,0.00,VWS V14.00,2013-02-02 05:56:00,
2013-02-02 01:01:00,25.9,17.1,30.36,ENE,74,0.0,0.0,69,0.00,,---,0.00,VWS V14.00,2013-02-02 06:01:00,
2013-02-02 01:06:00,25.8,16.7,30.36,ENE,74,0.0,0.0,68,0.00,,---,0.00,VWS V14.00,2013-02-02 06:06:00,
2013-02-02 01:11:00,25.7,16.6,30.36,ENE,74,0.0,0.0,68,0.00,,---,0.00,VWS V14.00,2013-02-02 06:11:00,
2013-02-02 01:16:00,25.6,16.9,30.36,ENE,74,0.0,0.0,69,0.00,,---,0.00,VWS V14.00,2013-02-02 06:16:00,
2013-02-02 01:21:00,25.4,16.7,30.37,ENE,74,0.0,0.0,69,0.00,,---,0.00,VWS V14.00,2013-02-02 06:21:00,
2013-02-02 01:26:00,25.4,16.7,30.37,ENE,74,0.0,0.0,69,0.00,,---,0.00,VWS V14.00,2013-02-02 06:26:00,
2013-02-02 01:31:00,25.3,16.2,30.36,ENE,74,0.0,0.0,68,0.00,,---,0.00,VWS V14.00,2013-02-02 06:31:00,
2013-02-02 01:36:00,25.3,16.6,30.37,ENE,74,0.0,0.0,69,0.00,,---,0.00,VWS V14.00,2013-02-02 06:36:00,
2013-02-02 01:41:00,25.2,16.8,30.37,ENE,74,0.0,0.0,70,0.00,,---,0.00,VWS V14.00,2013-02-02 06:41:00,
2013-02-02 01:46:00,25.2,16.5,30.38,ENE,74,0.0,0.0,69,0.00,,---,0.00,VWS V14.00,2013-02-02 06:46:00,
2013-02-02 01:51:00,25.1,16.4,30.38,ENE,74,0.0,0.0,69,0.00,,---,0.00,VWS V14.00,2013-02-02 06:51:00,
2013-02-02 01:56:00,25.2,16.8,30.38,ENE,74,0.0,0.0,70,0.00,,---,0.00,VWS V14.00,2013-02-02 06:56:00,
2013-02-02 02:01:00,25.1,16.4,30.38,ENE,74,0.0,0.0,69,0.00,,---,0.00,VWS V14.00,2013-02-02 07:01:00,
2013-02-02 02:06:00,24.9,16.5,30.38,ENE,74,0.0,0.0,70,0.00,,---,0.00,VWS V14.00,2013-02-02 07:06:00,
2013-02-02 02:11:00,24.8,16.4,30.37,ENE,74,0.0,0.0,70,0.00,,---,0.00,VWS V14.00,2013-02-02 07:11:00,
2013-02-02 02:16:00,24.7,16.3,30.37,ENE,74,0.0,0.0,70,0.00,,---,0.00,VWS V14.00,2013-02-02 07:16:00,
2013-02-02 02:21:00,24.6,16.5,30.38,ENE,74,0.0,0.0,71,0.00,,---,0.00,VWS V14.00,2013-02-02 07:21:00,
2013-02-02 02:26:00,24.5,16.1,30.37,ENE,74,0.0,0.0,70,0.00,,---,0.00,VWS V14.00,2013-02-02 07:26:00,
2013-02-02 02:31:00,24.5,15.8,30.37,ENE,74,0.0,0.0,69,0.00,,---,0.00,VWS V14.00,2013-02-02 07:31:00,
2013-02-02 02:36:00,24.3,15.9,30.37,ENE,74,0.0,0.0,70,0.00,,---,0.00,VWS V14.00,2013-02-02 07:36:00,
2013-02-02 02:41:00,24.3,16.3,30.37,ENE,74,0.0,0.0,71,0.00,,---,0.00,VWS V14.00,2013-02-02 07:41:00,
2013-02-02 02:46:00,24.2,16.5,30.37,ENE,74,0.0,0.0,72,0.00,,---,0.00,VWS V14.00,2013-02-02 07:46:00,
2013-02-02 02:51:00,24.1,16.7,30.37,ENE,74,0.0,0.0,73,0.00,,---,0.00,VWS V14.00,2013-02-02 07:51:00,
2013-02-02 02:56:00,24.1,16.4,30.37,ENE,74,0.0,0.0,72,0.00,,---,0.00,VWS V14.00,2013-02-02 07:56:00,
2013-02-02 03:01:00,24.0,16.3,30.37,ENE,74,0.0,0.0,72,0.00,,---,0.00,VWS V14.00,2013-02-02 08:01:00,
2013-02-02 03:06:00,24.0,16.0,30.37,ENE,74,0.0,0.0,71,0.00,,---,0.00,VWS V14.00,2013-02-02 08:06:00,
2013-02-02 03:11:00,23.9,15.6,30.37,ENE,74,0.0,0.0,70,0.00,,---,0.00,VWS V14.00,2013-02-02 08:11:00,
2013-02-02 03:16:00,23.9,15.2,30.37,ENE,74,0.0,0.0,69,0.00,,---,0.00,VWS V14.00,2013-02-02 08:16:00,
2013-02-02 03:21:00,23.8,15.1,30.37,ENE,74,0.0,0.0,69,0.00,,---,0.00,VWS V14.00,2013-02-02 08:21:00,
2013-02-02 03:26:00,23.8,14.8,30.37,ENE,74,0.0,0.0,68,0.00,,---,0.00,VWS V14.00,2013-02-02 08:26:00,
2013-02-02 03:31:00,23.8,15.5,30.37,ENE,74,0.0,0.0,70,0.00,,---,0.00,VWS V14.00,2013-02-02 08:31:00,
2013-02-02 03:36:00,23.8,15.1,30.37,ENE,74,0.0,0.0,69,0.00,,---,0.00,VWS V14.00,2013-02-02 08:36:00,
2013-02-02 03:41:00,23.9,15.9,30.36,ENE,74,0.0,0.0,71,0.00,,---,0.00,VWS V14.00,2013-02-02 08:41:00,
2013-02-02 03:46:00,23.9,15.9,30.37,ENE,74,0.0,0.0,71,0.00,,---,0.00,VWS V14.00,2013-02-02 08:46:00,
2013-02-02 03:51:00,23.9,16.2,30.36,ENE,74,0.0,0.0,72,0.00,,---,0.00,VWS V14.00,2013-02-02 08:51:00,
2013-02-02 03:56:00,23.9,16.8,30.36,ENE,74,0.0,0.0,74,0.00,,---,0.00,VWS V14.00,2013-02-02 08:56:00,
2013-02-02 04:01:00,23.9,16.8,30.36,ENE,74,0.0,0.0,74,0.00,,---,0.00,VWS V14.00,2013-02-02 09:01:00,
2013-02-02 04:06:00,23.8,17.0,30.36,ENE,74,0.0,0.0,75,0.00,,---,0.00,VWS V14.00,2013-02-02 09:06:00,
2013-02-02 04:11:00,23.8,17.4,30.36,ENE,74,0.0,0.0,76,0.00,,---,0.00,VWS V14.00,2013-02-02 09:11:00,
2013-02-02 04:16:00,23.8,17.4,30.36,ENE,74,0.0,0.0,76,0.00,,---,0.00,VWS V14.00,2013-02-02 09:16:00,
2013-02-02 04:21:00,23.8,17.7,30.36,ENE,74,0.0,0.0,77,0.00,,---,0.00,VWS V14.00,2013-02-02 09:21:00,
2013-02-02 04:26:00,23.8,18.2,30.35,ENE,74,0.0,0.0,79,0.00,,---,0.00,VWS V14.00,2013-02-02 09:26:00,
2013-02-02 04:31:00,23.8,18.2,30.35,ENE,74,0.0,0.0,79,0.00,,---,0.00,VWS V14.00,2013-02-02 09:31:00,
2013-02-02 04:36:00,23.8,18.2,30.35,ENE,74,0.0,0.0,79,0.00,,---,0.00,VWS V14.00,2013-02-02 09:36:00,
2013-02-02 04:41:00,23.8,18.0,30.36,ENE,74,0.0,0.0,78,0.00,,---,0.00,VWS V14.00,2013-02-02 09:41:00,
2013-02-02 04:46:00,23.7,17.9,30.36,ENE,74,0.0,0.0,78,0.00,,---,0.00,VWS V14.00,2013-02-02 09:46:00,
2013-02-02 04:51:00,23.7,17.9,30.36,ENE,74,0.0,0.0,78,0.00,,---,0.00,VWS V14.00,2013-02-02 09:51:00,
2013-02-02 04:56:00,23.6,17.5,30.36,ENE,74,0.0,0.0,77,0.00,,---,0.00,VWS V14.00,2013-02-02 09:56:00,
2013-02-02 05:01:00,23.6,17.5,30.36,ENE,74,0.0,0.0,77,0.00,,---,0.00,VWS V14.00,2013-02-02 10:01:00,
2013-02-02 05:06:00,23.5,17.1,30.37,ENE,74,0.0,0.0,76,0.00,,---,0.00,VWS V14.00,2013-02-02 10:06:00,
2013-02-02 05:11:00,23.4,17.0,30.36,ENE,74,0.0,0.0,76,0.00,,---,0.00,VWS V14.00,2013-02-02 10:11:00,
2013-02-02 05:16:00,23.4,16.7,30.37,ENE,74,0.0,0.0,75,0.00,,---,0.00,VWS V14.00,2013-02-02 10:16:00,
2013-02-02 05:21:00,23.3,16.6,30.37,ENE,74,0.0,0.0,75,0.00,,---,0.00,VWS V14.00,2013-02-02 10:21:00,
2013-02-02 05:26:00,23.2,16.2,30.37,ENE,74,0.0,0.0,74,0.00,,---,0.00,VWS V14.00,2013-02-02 10:26:00,
2013-02-02 05:31:00,23.2,16.5,30.37,ENE,74,0.0,0.0,75,0.00,,---,0.00,VWS V14.00,2013-02-02 10:31:00,
2013-02-02 05:36:00,23.2,16.5,30.37,ENE,74,0.0,0.0,75,0.00,,---,0.00,VWS V14.00,2013-02-02 10:36:00,
2013-02-02 05:41:00,23.2,16.5,30.37,ENE,74,0.0,0.0,75,0.00,,---,0.00,VWS V14.00,2013-02-02 10:41:00,
2013-02-02 05:46:00,23.3,16.6,30.37,ENE,74,0.0,0.0,75,0.00,,---,0.00,VWS V14.00,2013-02-02 10:46:00,
2013-02-02 05:51:00,23.3,16.2,30.37,ENE,74,0.0,0.0,74,0.00,,---,0.00,VWS V14.00,2013-02-02 10:51:00,
2013-02-02 05:56:00,23.3,16.2,30.38,ENE,74,0.0,0.0,74,0.00,,---,0.00,VWS V14.00,2013-02-02 10:56:00,
2013-02-02 06:01:00,23.3,16.2,30.38,ENE,74,0.0,0.0,74,0.00,,---,0.00,VWS V14.00,2013-02-02 11:01:00,
2013-02-02 06:07:00,23.2,15.8,30.38,ENE,74,0.0,0.0,73,0.00,,---,0.00,VWS V14.00,2013-02-02 11:07:00,
2013-02-02 06:12:00,23.3,15.6,30.38,ENE,74,0.0,0.0,72,0.00,,---,0.00,VWS V14.00,2013-02-02 11:12:00,
2013-02-02 06:17:00,23.3,15.9,30.38,ENE,74,0.0,0.0,73,0.00,,---,0.00,VWS V14.00,2013-02-02 11:17:00,
2013-02-02 06:22:00,23.2,15.5,30.38,ENE,74,0.0,0.0,72,0.00,,---,0.00,VWS V14.00,2013-02-02 11:22:00,
2013-02-02 06:27:00,23.1,15.8,30.38,ENE,74,0.0,0.0,73,0.00,,---,0.00,VWS V14.00,2013-02-02 11:27:00,
2013-02-02 06:32:00,23.1,15.4,30.38,ENE,74,0.0,0.0,72,0.00,,---,0.00,VWS V14.00,2013-02-02 11:32:00,
2013-02-02 06:37:00,23.0,15.3,30.39,ENE,74,0.0,0.0,72,0.00,,---,0.00,VWS V14.00,2013-02-02 11:37:00,
2013-02-02 06:42:00,23.0,15.0,30.39,ENE,74,0.0,0.0,71,0.00,,---,0.00,VWS V14.00,2013-02-02 11:42:00,
2013-02-02 06:47:00,23.0,15.6,30.39,ENE,74,0.0,0.0,73,0.00,,---,0.00,VWS V14.00,2013-02-02 11:47:00,
2013-02-02 06:52:00,23.0,15.3,30.39,ENE,74,0.0,0.0,72,0.00,,---,0.00,VWS V14.00,2013-02-02 11:52:00,
2013-02-02 06:57:00,23.0,16.0,30.39,ENE,74,0.0,0.0,74,0.00,,---,0.00,VWS V14.00,2013-02-02 11:57:00,
2013-02-02 07:02:00,23.0,16.3,30.39,ENE,74,0.0,0.0,75,0.00,,---,0.00,VWS V14.00,2013-02-02 12:02:00,
2013-02-02 07:07:00,23.0,15.6,30.39,ENE,74,0.0,0.0,73,0.00,,---,0.00,VWS V14.00,2013-02-02 12:07:00,
2013-02-02 07:12:00,22.9,15.9,30.39,ENE,74,0.0,0.0,74,0.00,,---,0.00,VWS V14.00,2013-02-02 12:12:00,
2013-02-02 07:17:00,22.8,15.8,30.39,ENE,74,0.0,0.0,74,0.00,,---,0.00,VWS V14.00,2013-02-02 12:17:00,
2013-02-02 07:22:00,22.7,15.7,30.39,ENE,74,0.0,0.0,74,0.00,,---,0.00,VWS V14.00,2013-02-02 12:22:00,
2013-02-02 07:27:00,22.6,15.6,30.39,ENE,74,0.0,0.0,74,0.00,,---,0.00,VWS V14.00,2013-02-02 12:27:00,
2013-02-02 07:32:00,22.6,15.3,30.39,ENE,74,0.0,0.0,73,0.00,,---,0.00,VWS V14.00,2013-02-02 12:32:00,
2013-02-02 07:37:00,22.6,15.3,30.40,ENE,74,0.0,0.0,73,0.00,,---,0.00,VWS V14.00,2013-02-02 12:37:00,
2013-02-02 07:42:00,22.6,14.9,30.39,ENE,74,0.0,0.0,72,0.00,,---,0.00,VWS V14.00,2013-02-02 12:42:00,
2013-02-02 07:47:00,22.7,15.7,30.39,ENE,74,0.0,0.0,74,0.00,,---,0.00,VWS V14.00,2013-02-02 12:47:00,
2013-02-02 07:52:00,22.7,15.7,30.39,ENE,74,0.0,0.0,74,0.00,,---,0.00,VWS V14.00,2013-02-02 12:52:00,
2013-02-02 07:57:00,22.8,16.4,30.39,ENE,74,0.0,0.0,76,0.00,,---,0.00,VWS V14.00,2013-02-02 12:57:00,
2013-02-02 08:02:00,22.9,16.2,30.39,ENE,74,0.0,0.0,75,0.00,,---,0.00,VWS V14.00,2013-02-02 13:02:00,
2013-02-02 08:07:00,23.0,16.6,30.39,ENE,74,0.0,0.0,76,0.00,,---,0.00,VWS V14.00,2013-02-02 13:07:00,
2013-02-02 08:12:00,23.1,16.7,30.39,ENE,74,0.0,0.0,76,0.00,,---,0.00,VWS V14.00,2013-02-02 13:12:00,
2013-02-02 08:17:00,23.3,17.2,30.39,ENE,74,0.0,0.0,77,0.00,,---,0.00,VWS V14.00,2013-02-02 13:17:00,
2013-02-02 08:22:00,23.5,17.7,30.39,ENE,74,0.0,0.0,78,0.00,,---,0.00,VWS V14.00,2013-02-02 13:22:00,
2013-02-02 08:27:00,23.8,18.0,30.39,ENE,74,0.0,0.0,78,0.00,,---,0.00,VWS V14.00,2013-02-02 13:27:00,
2013-02-02 08:32:00,24.1,18.2,30.39,ENE,74,0.0,0.0,78,0.00,,---,0.00,VWS V14.00,2013-02-02 13:32:00,
2013-02-02 08:37:00,24.4,18.5,30.39,ENE,74,0.0,0.0,78,0.00,,---,0.00,VWS V14.00,2013-02-02 13:37:00,
2013-02-02 08:42:00,24.8,18.0,30.39,ENE,74,0.0,0.0,75,0.00,,---,0.00,VWS V14.00,2013-02-02 13:42:00,
2013-02-02 08:47:00,25.3,18.8,30.39,ENE,74,0.0,0.0,76,0.00,,---,0.00,VWS V14.00,2013-02-02 13:47:00,
2013-02-02 08:52:00,25.8,18.4,30.40,ENE,74,0.0,0.0,73,0.00,,---,0.00,VWS V14.00,2013-02-02 13:52:00,
2013-02-02 08:57:00,26.5,16.7,30.40,ENE,74,0.0,1.0,66,0.00,,---,0.00,VWS V14.00,2013-02-02 13:57:00,
2013-02-02 09:02:00,27.5,14.7,30.40,SSE,161,4.0,6.0,58,0.00,,---,0.00,VWS V14.00,2013-02-02 14:02:00,
2013-02-02 09:07:00,28.4,14.7,30.39,SSE,166,0.0,0.0,56,0.00,,---,0.00,VWS V14.00,2013-02-02 14:07:00,
2013-02-02 09:12:00,29.2,14.6,30.39,SE,146,4.0,6.0,54,0.00,,---,0.00,VWS V14.00,2013-02-02 14:12:00,
2013-02-02 09:17:00,30.0,14.5,30.39,SE,139,2.0,2.0,52,0.00,,---,0.00,VWS V14.00,2013-02-02 14:17:00,
2013-02-02 09:22:00,30.6,14.6,30.39,SE,139,1.0,1.0,51,0.00,,---,0.00,VWS V14.00,2013-02-02 14:22:00,
2013-02-02 09:27:00,31.0,14.6,30.39,ESE,108,0.0,0.0,50,0.00,,---,0.00,VWS V14.00,2013-02-02 14:27:00,
2013-02-02 09:32:00,31.3,15.3,30.39,ESE,109,0.0,1.0,51,0.00,,---,0.00,VWS V14.00,2013-02-02 14:32:00,
2013-02-02 09:37:00,31.7,15.7,30.39,SE,143,0.0,0.0,51,0.00,,---,0.00,VWS V14.00,2013-02-02 14:37:00,
2013-02-02 09:42:00,32.1,15.6,30.39,SE,143,2.0,2.0,50,0.00,,---,0.00,VWS V14.00,2013-02-02 14:42:00,
2013-02-02 09:47:00,32.6,14.6,30.38,SE,143,0.0,0.0,47,0.00,,---,0.00,VWS V14.00,2013-02-02 14:47:00,
2013-02-02 09:52:00,33.0,14.5,30.39,SE,143,0.0,0.0,46,0.00,,---,0.00,VWS V14.00,2013-02-02 14:52:00,
2013-02-02 09:57:00,33.5,15.4,30.38,SE,143,4.0,6.0,47,0.00,,---,0.00,VWS V14.00,2013-02-02 14:57:00,
2013-02-02 10:02:00,34.0,15.4,30.38,SE,143,0.0,4.0,46,0.00,,---,0.00,VWS V14.00,2013-02-02 15:02:00,
2013-02-02 10:07:00,34.3,13.6,30.37,South,175,5.0,5.0,42,0.00,,---,0.00,VWS V14.00,2013-02-02 15:07:00,
2013-02-02 10:12:00,34.6,15.5,30.37,SSE,162,4.0,7.0,45,0.00,,---,0.00,VWS V14.00,2013-02-02 15:12:00,
2013-02-02 10:17:00,34.9,14.7,30.37,SE,139,4.0,8.0,43,0.00,,---,0.00,VWS V14.00,2013-02-02 15:17:00,
2013-02-02 10:22:00,35.1,13.8,30.37,SSE,150,5.0,5.0,41,0.00,,---,0.00,VWS V14.00,2013-02-02 15:22:00,
2013-02-02 10:27:00,35.3,14.0,30.36,SSE,157,4.0,6.0,41,0.00,,---,0.00,VWS V14.00,2013-02-02 15:27:00,
2013-02-02 10:32:00,35.5,13.6,30.36,South,191,3.0,4.0,40,0.00,,---,0.00,VWS V14.00,2013-02-02 15:32:00,
2013-02-02 10:37:00,35.6,14.2,30.36,SSE,157,2.0,5.0,41,0.00,,---,0.00,VWS V14.00,2013-02-02 15:37:00,
2013-02-02 10:42:00,36.0,14.6,30.36,SSE,157,0.0,1.0,41,0.00,,---,0.00,VWS V14.00,2013-02-02 15:42:00,
2013-02-02 10:47:00,36.5,13.3,30.35,SSE,150,2.0,5.0,38,0.00,,---,0.00,VWS V14.00,2013-02-02 15:47:00,
2013-02-02 10:52:00,37.0,14.9,30.35,SSE,150,4.0,4.0,40,0.00,,---,0.00,VWS V14.00,2013-02-02 15:52:00,
2013-02-02 10:57:00,37.4,14.1,30.35,South,179,5.0,5.0,38,0.00,,---,0.00,VWS V14.00,2013-02-02 15:57:00,
2013-02-02 11:02:00,37.5,14.8,30.35,SSW,203,8.0,9.0,39,0.00,,---,0.00,VWS V14.00,2013-02-02 16:02:00,
2013-02-02 11:07:00,37.3,13.4,30.35,West,263,3.0,4.0,37,0.00,,---,0.00,VWS V14.00,2013-02-02 16:07:00,
2013-02-02 11:12:00,37.2,13.9,30.35,SW,223,3.0,3.0,38,0.00,,---,0.00,VWS V14.00,2013-02-02 16:12:00,
2013-02-02 11:17:00,37.5,14.8,30.34,SSW,198,8.0,8.0,39,0.00,,---,0.00,VWS V14.00,2013-02-02 16:17:00,
2013-02-02 11:22:00,37.9,14.6,30.33,SSE,158,2.0,6.0,38,0.00,,---,0.00,VWS V14.00,2013-02-02 16:22:00,
2013-02-02 11:27:00,38.5,14.5,30.33,SSE,167,4.0,7.0,37,0.00,,---,0.00,VWS V14.00,2013-02-02 16:27:00,
2013-02-02 11:32:00,39.2,14.5,30.33,WSW,237,4.0,6.0,36,0.00,,---,0.00,VWS V14.00,2013-02-02 16:32:00,
2013-02-02 11:37:00,39.3,14.6,30.32,SW,215,4.0,6.0,36,0.00,,---,0.00,VWS V14.00,2013-02-02 16:37:00,
2013-02-02 11:42:00,39.0,14.3,30.32,SW,229,3.0,4.0,36,0.00,,---,0.00,VWS V14.00,2013-02-02 16:42:00,
2013-02-02 11:47:00,39.0,14.9,30.31,West,259,6.0,6.0,37,0.00,,---,0.00,VWS V14.00,2013-02-02 16:47:00,
2013-02-02 11:52:00,39.2,15.1,30.32,WSW,238,9.0,11.0,37,0.00,,---,0.00,VWS V14.00,2013-02-02 16:52:00,
2013-02-02 11:57:00,39.5,15.4,30.31,WSW,255,4.0,6.0,37,0.00,,---,0.00,VWS V14.00,2013-02-02 16:57:00,
2013-02-02 12:02:00,39.5,15.4,30.31,WSW,248,4.0,6.0,37,0.00,,---,0.00,VWS V14.00,2013-02-02 17:02:00,
2013-02-02 12:07:00,39.5,14.8,30.32,West,270,5.0,5.0,36,0.00,,---,0.00,VWS V14.00,2013-02-02 17:07:00,
2013-02-02 12:12:00,39.3,15.2,30.31,SW,218,0.0,4.0,37,0.00,,---,0.00,VWS V14.00,2013-02-02 17:12:00,
2013-02-02 12:17:00,39.5,14.8,30.31,SSW,206,7.0,9.0,36,0.00,,---,0.00,VWS V14.00,2013-02-02 17:17:00,
2013-02-02 12:22:00,39.8,14.4,30.30,NW,314,0.0,0.0,35,0.00,,---,0.00,VWS V14.00,2013-02-02 17:22:00,
2013-02-02 12:27:00,39.9,15.1,30.31,SSW,209,8.0,11.0,36,0.00,,---,0.00,VWS V14.00,2013-02-02 17:27:00,
2013-02-02 12:32:00,39.9,15.1,30.30,West,275,0.0,1.0,36,0.00,,---,0.00,VWS V14.00,2013-02-02 17:32:00,
2013-02-02 12:37:00,40.0,14.6,30.30,NW,306,2.0,5.0,35,0.00,,---,0.00,VWS V14.00,2013-02-02 17:37:00,
2013-02-02 12:42:00,40.1,14.7,30.30,SW,221,5.0,7.0,35,0.00,,---,0.00,VWS V14.00,2013-02-02 17:42:00,
2013-02-02 12:47:00,40.3,14.8,30.29,NW,319,3.0,6.0,35,0.00,,---,0.00,VWS V14.00,2013-02-02 17:47:00,
2013-02-02 12:52:00,40.6,15.8,30.29,WSW,246,5.0,10.0,36,0.00,,---,0.00,VWS V14.00,2013-02-02 17:52:00,
2013-02-02 12:57:00,41.3,17.0,30.28,WSW,242,8.0,9.0,37,0.00,,---,0.00,VWS V14.00,2013-02-02 17:57:00,
2013-02-02 13:02:00,42.5,16.8,30.28,SW,218,5.0,10.0,35,0.00,,---,0.00,VWS V14.00,2013-02-02 18:02:00,
2013-02-02 13:07:00,43.0,15.2,30.27,SW,236,10.0,11.0,32,0.00,,---,0.00,VWS V14.00,2013-02-02 18:07:00,
2013-02-02 13:12:00,43.3,14.7,30.26,West,266,4.0,4.0,31,0.00,,---,0.00,VWS V14.00,2013-02-02 18:12:00,
2013-02-02 13:17:00,43.0,13.7,30.27,SW,215,7.0,9.0,30,0.00,,---,0.00,VWS V14.00,2013-02-02 18:17:00,
2013-02-02 13:22:00,43.3,15.4,30.27,WSW,240,6.0,12.0,32,0.00,,---,0.00,VWS V14.00,2013-02-02 18:22:00,
2013-02-02 13:27:00,43.3,14.7,30.26,WSW,245,6.0,12.0,31,0.00,,---,0.00,VWS V14.00,2013-02-02 18:27:00,
2013-02-02 13:32:00,43.3,14.7,30.26,WSW,246,4.0,6.0,31,0.00,,---,0.00,VWS V14.00,2013-02-02 18:32:00,
2013-02-02 13:37:00,43.2,13.9,30.25,South,185,7.0,9.0,30,0.00,,---,0.00,VWS V14.00,2013-02-02 18:37:00,
2013-02-02 13:42:00,42.9,15.1,30.24,SSW,203,9.0,9.0,32,0.00,,---,0.00,VWS V14.00,2013-02-02 18:42:00,
2013-02-02 13:47:00,42.8,15.7,30.24,SW,235,6.0,7.0,33,0.00,,---,0.00,VWS V14.00,2013-02-02 18:47:00,
2013-02-02 13:52:00,42.8,14.3,30.23,WSW,244,6.0,10.0,31,0.00,,---,0.00,VWS V14.00,2013-02-02 18:52:00,
2013-02-02 13:57:00,42.7,14.2,30.23,SW,227,7.0,8.0,31,0.00,,---,0.00,VWS V14.00,2013-02-02 18:57:00,
2013-02-02 14:02:00,43.0,13.7,30.22,SW,234,11.0,12.0,30,0.00,,---,0.00,VWS V14.00,2013-02-02 19:02:00,
2013-02-02 14:07:00,43.6,14.2,30.22,SW,232,5.0,11.0,30,0.00,,---,0.00,VWS V14.00,2013-02-02 19:07:00,
2013-02-02 14:12:00,44.2,14.0,30.22,WSW,240,9.0,11.0,29,0.00,,---,0.00,VWS V14.00,2013-02-02 19:12:00,
2013-02-02 14:17:00,44.3,12.4,30.22,WSW,244,9.0,10.0,27,0.00,,---,0.00,VWS V14.00,2013-02-02 19:17:00,
2013-02-02 14:22:00,44.5,12.6,30.21,SSW,201,12.0,14.0,27,0.00,,---,0.00,VWS V14.00,2013-02-02 19:22:00,
2013-02-02 14:27:00,44.5,12.6,30.21,WSW,251,11.0,16.0,27,0.00,,---,0.00,VWS V14.00,2013-02-02 19:27:00,
2013-02-02 14:32:00,44.5,12.6,30.21,WSW,246,7.0,16.0,27,0.00,,---,0.00,VWS V14.00,2013-02-02 19:32:00,
2013-02-02 14:37:00,44.7,14.4,30.21,SW,216,2.0,8.0,29,0.00,,---,0.00,VWS V14.00,2013-02-02 19:37:00,
2013-02-02 14:42:00,44.6,14.3,30.21,WSW,237,9.0,10.0,29,0.00,,---,0.00,VWS V14.00,2013-02-02 19:42:00,
2013-02-02 14:47:00,44.7,15.9,30.20,SW,229,4.0,7.0,31,0.00,,---,0.00,VWS V14.00,2013-02-02 19:47:00,
2013-02-02 14:52:00,44.9,16.1,30.20,SW,231,10.0,15.0,31,0.00,,---,0.00,VWS V14.00,2013-02-02 19:52:00,
2013-02-02 14:57:00,44.7,16.7,30.20,SW,221,6.0,9.0,32,0.00,,---,0.00,VWS V14.00,2013-02-02 19:57:00,
2013-02-02 15:02:00,44.6,17.3,30.20,WSW,241,9.0,15.0,33,0.00,,---,0.00,VWS V14.00,2013-02-02 20:02:00,
2013-02-02 15:07:00,44.4,19.1,30.20,SW,227,9.0,11.0,36,0.00,,---,0.00,VWS V14.00,2013-02-02 20:07:00,
2013-02-02 15:12:00,44.2,20.2,30.20,West,263,6.0,8.0,38,0.00,,---,0.00,VWS V14.00,2013-02-02 20:12:00,
2013-02-02 15:17:00,43.9,21.7,30.20,SW,225,8.0,10.0,41,0.00,,---,0.00,VWS V14.00,2013-02-02 20:17:00,
2013-02-02 15:22:00,43.5,25.1,30.20,West,265,14.0,19.0,48,0.00,,---,0.00,VWS V14.00,2013-02-02 20:22:00,
2013-02-02 15:27:00,42.8,26.4,30.20,WSW,243,11.0,18.0,52,0.00,,---,0.00,VWS V14.00,2013-02-02 20:27:00,
2013-02-02 15:32:00,41.9,29.9,30.19,SW,222,11.0,18.0,62,0.00,,---,0.00,VWS V14.00,2013-02-02 20:32:00,
2013-02-02 15:37:00,40.8,30.3,30.19,West,262,10.0,10.0,66,0.00,,---,0.00,VWS V14.00,2013-02-02 20:37:00,
2013-02-02 15:42:00,40.3,31.3,30.18,SW,219,5.0,9.0,70,0.00,,---,0.00,VWS V14.00,2013-02-02 20:42:00,
2013-02-02 15:47:00,40.1,31.8,30.17,WSW,242,5.0,6.0,72,0.00,,---,0.00,VWS V14.00,2013-02-02 20:47:00,
2013-02-02 15:52:00,39.8,30.8,30.17,SSW,213,6.0,7.0,70,0.00,,---,0.00,VWS V14.00,2013-02-02 20:52:00,
2013-02-02 15:57:00,39.6,30.6,30.17,WSW,240,7.0,8.0,70,0.00,,---,0.00,VWS V14.00,2013-02-02 20:57:00,
2013-02-02 16:02:00,39.8,31.5,30.17,WSW,254,0.0,3.0,72,0.00,,---,0.00,VWS V14.00,2013-02-02 21:02:00,
2013-02-02 16:07:00,40.0,31.4,30.17,WSW,252,0.0,4.0,71,0.00,,---,0.00,VWS V14.00,2013-02-02 21:07:00,
2013-02-02 16:12:00,40.2,31.6,30.17,West,269,4.0,4.0,71,0.00,,---,0.00,VWS V14.00,2013-02-02 21:12:00,
2013-02-02 16:17:00,40.3,31.7,30.17,NW,315,3.0,5.0,71,0.00,,---,0.00,VWS V14.00,2013-02-02 21:17:00,
2013-02-02 16:22:00,40.2,31.2,30.17,SW,236,4.0,9.0,70,0.00,,---,0.00,VWS V14.00,2013-02-02 21:22:00,
2013-02-02 16:27:00,40.2,31.2,30.17,WSW,252,0.0,6.0,70,0.00,,---,0.00,VWS V14.00,2013-02-02 21:27:00,
2013-02-02 16:32:00,40.2,31.6,30.17,WSW,253,4.0,4.0,71,0.00,,---,0.00,VWS V14.00,2013-02-02 21:32:00,
2013-02-02 16:37:00,40.5,31.5,30.17,WSW,238,10.0,11.0,70,0.00,,---,0.00,VWS V14.00,2013-02-02 21:37:00,
2013-02-02 16:42:00,40.7,30.2,30.16,SW,234,5.0,5.0,66,0.00,,---,0.00,VWS V14.00,2013-02-02 21:42:00,
2013-02-02 16:47:00,41.0,30.5,30.16,WSW,249,9.0,14.0,66,0.00,,---,0.00,VWS V14.00,2013-02-02 21:47:00,
2013-02-02 16:52:00,41.1,30.6,30.16,SW,232,3.0,9.0,66,0.00,,---,0.00,VWS V14.00,2013-02-02 21:52:00,
2013-02-02 16:57:00,41.1,30.6,30.15,West,277,1.0,5.0,66,0.00,,---,0.00,VWS V14.00,2013-02-02 21:57:00,
2013-02-02 17:02:00,41.1,31.0,30.15,WNW,289,3.0,5.0,67,0.00,,---,0.00,VWS V14.00,2013-02-02 22:02:00,
2013-02-02 17:07:00,41.2,31.8,30.16,West,281,3.0,3.0,69,0.00,,---,0.00,VWS V14.00,2013-02-02 22:07:00,
2013-02-02 17:12:00,41.1,32.1,30.16,NW,307,0.0,4.0,70,0.00,,---,0.00,VWS V14.00,2013-02-02 22:12:00,
2013-02-02 17:17:00,40.9,31.9,30.15,NNW,327,2.0,3.0,70,0.00,,---,0.00,VWS V14.00,2013-02-02 22:17:00,
2013-02-02 17:22:00,40.7,32.0,30.15,West,265,0.0,0.0,71,0.00,,---,0.00,VWS V14.00,2013-02-02 22:22:00,
2013-02-02 17:27:00,40.5,32.2,30.15,West,264,3.0,6.0,72,0.00,,---,0.00,VWS V14.00,2013-02-02 22:27:00,
2013-02-02 17:32:00,40.4,32.4,30.15,West,269,2.0,5.0,73,0.00,,---,0.00,VWS V14.00,2013-02-02 22:32:00,
2013-02-02 17:37:00,40.3,32.7,30.14,West,261,0.0,0.0,74,0.00,,---,0.00,VWS V14.00,2013-02-02 22:37:00,
2013-02-02 17:42:00,40.2,32.6,30.14,West,261,3.0,4.0,74,0.00,,---,0.00,VWS V14.00,2013-02-02 22:42:00,
2013-02-02 17:47:00,40.1,32.8,30.14,WSW,258,4.0,6.0,75,0.00,,---,0.00,VWS V14.00,2013-02-02 22:47:00,
2013-02-02 17:52:00,40.0,33.4,30.14,WSW,255,3.0,6.0,77,0.00,,---,0.00,VWS V14.00,2013-02-02 22:52:00,
2013-02-02 17:57:00,39.8,33.2,30.14,NW,306,9.0,10.0,77,0.00,,---,0.00,VWS V14.00,2013-02-02 22:57:00,
2013-02-02 18:02:00,39.5,33.5,30.14,WNW,284,5.0,7.0,79,0.00,,---,0.00,VWS V14.00,2013-02-02 23:02:00,
2013-02-02 18:07:00,39.2,33.6,30.14,NW,310,1.0,7.0,80,0.00,,---,0.00,VWS V14.00,2013-02-02 23:07:00,
2013-02-02 18:12:00,39.0,33.7,30.14,WSW,251,4.0,6.0,81,0.00,,---,0.00,VWS V14.00,2013-02-02 23:12:00,
2013-02-02 18:17:00,38.9,33.9,30.14,WNW,290,7.0,10.0,82,0.00,,---,0.00,VWS V14.00,2013-02-02 23:17:00,
2013-02-02 18:22:00,38.8,34.1,30.15,WSW,243,2.0,6.0,83,0.00,,---,0.00,VWS V14.00,2013-02-02 23:22:00,
2013-02-02 18:27:00,38.7,34.3,30.15,WSW,251,8.0,8.0,84,0.00,,---,0.00,VWS V14.00,2013-02-02 23:27:00,
2013-02-02 18:32:00,38.5,34.4,30.15,WSW,242,4.0,6.0,85,0.00,,---,0.00,VWS V14.00,2013-02-02 23:32:00,
2013-02-02 18:37:00,38.3,34.5,30.14,SW,229,6.0,6.0,86,0.00,,---,0.00,VWS V14.00,2013-02-02 23:37:00,
2013-02-02 18:42:00,38.2,34.7,30.15,West,260,5.0,9.0,87,0.00,,---,0.00,VWS V14.00,2013-02-02 23:42:00,
2013-02-02 18:47:00,38.0,34.8,30.15,West,279,4.0,8.0,88,0.01,,---,0.01,VWS V14.00,2013-02-02 23:47:00,
2013-02-02 18:52:00,37.8,34.6,30.15,West,268,8.0,9.0,88,0.01,,---,0.01,VWS V14.00,2013-02-02 23:52:00,
2013-02-02 18:57:00,37.7,34.8,30.15,WSW,244,6.0,7.0,89,0.01,,---,0.01,VWS V14.00,2013-02-02 23:57:00,
2013-02-02 19:02:00,37.5,34.6,30.15,WSW,252,4.0,9.0,89,0.01,,---,0.01,VWS V14.00,2013-02-03 00:02:00,
2013-02-02 19:07:00,37.4,34.7,30.16,WNW,282,3.0,9.0,90,0.01,,---,0.01,VWS V14.00,2013-02-03 00:07:00,
2013-02-02 19:12:00,37.3,34.6,30.16,West,269,6.0,8.0,90,0.01,,---,0.01,VWS V14.00,2013-02-03 00:12:00,
2013-02-02 19:17:00,37.3,34.6,30.16,SW,236,8.0,12.0,90,0.01,,---,0.01,VWS V14.00,2013-02-03 00:17:00,
2013-02-02 19:22:00,37.3,34.9,30.17,WSW,258,9.0,10.0,91,0.02,,---,0.02,VWS V14.00,2013-02-03 00:22:00,
2013-02-02 19:27:00,37.2,34.8,30.17,WSW,248,5.0,8.0,91,0.02,,---,0.02,VWS V14.00,2013-02-03 00:27:00,
2013-02-02 19:32:00,37.1,34.7,30.17,WSW,252,14.0,17.0,91,0.02,,---,0.02,VWS V14.00,2013-02-03 00:32:00,
2013-02-02 19:37:00,36.9,34.5,30.16,WSW,249,5.0,7.0,91,0.02,,---,0.02,VWS V14.00,2013-02-03 00:37:00,
2013-02-02 19:42:00,36.8,34.7,30.16,SW,232,16.0,16.0,92,0.03,,---,0.03,VWS V14.00,2013-02-03 00:42:00,
2013-02-02 19:47:00,36.6,34.5,30.16,SW,228,9.0,10.0,92,0.02,,---,0.03,VWS V14.00,2013-02-03 00:47:00,
2013-02-02 19:52:00,36.5,34.4,30.16,SW,230,8.0,10.0,92,0.02,,---,0.03,VWS V14.00,2013-02-03 00:52:00,
2013-02-02 19:57:00,36.3,34.2,30.16,SW,236,6.0,12.0,92,0.03,,---,0.04,VWS V14.00,2013-02-03 00:57:00,
2013-02-02 20:02:00,36.2,34.4,30.15,SW,227,7.0,8.0,93,0.03,,---,0.04,VWS V14.00,2013-02-03 01:02:00,
2013-02-02 20:07:00,36.0,34.2,30.15,WSW,250,9.0,10.0,93,0.03,,---,0.04,VWS V14.00,2013-02-03 01:07:00,
2013-02-02 20:12:00,36.0,34.2,30.15,SW,228,5.0,10.0,93,0.03,,---,0.04,VWS V14.00,2013-02-03 01:12:00,
2013-02-02 20:17:00,35.9,34.1,30.15,SW,226,6.0,10.0,93,0.03,,---,0.04,VWS V14.00,2013-02-03 01:17:00,
2013-02-02 20:22:00,35.8,34.0,30.15,SW,221,7.0,8.0,93,0.04,,---,0.05,VWS V14.00,2013-02-03 01:22:00,
2013-02-02 20:27:00,35.8,34.2,30.16,WSW,257,13.0,13.0,94,0.03,,---,0.05,VWS V14.00,2013-02-03 01:27:00,
2013-02-02 20:32:00,35.8,34.2,30.16,WSW,254,14.0,14.0,94,0.03,,---,0.05,VWS V14.00,2013-02-03 01:32:00,
2013-02-02 20:37:00,35.9,34.3,30.16,WSW,258,4.0,8.0,94,0.03,,---,0.05,VWS V14.00,2013-02-03 01:37:00,
2013-02-02 20:42:00,35.9,34.3,30.16,WSW,251,5.0,15.0,94,0.02,,---,0.05,VWS V14.00,2013-02-03 01:42:00,
2013-02-02 20:47:00,35.9,34.3,30.16,WSW,248,9.0,15.0,94,0.02,,---,0.05,VWS V14.00,2013-02-03 01:47:00,
2013-02-02 20:52:00,36.0,34.4,30.16,WNW,301,2.0,11.0,94,0.02,,---,0.05,VWS V14.00,2013-02-03 01:52:00,
2013-02-02 20:57:00,36.1,34.5,30.16,WSW,250,9.0,10.0,94,0.01,,---,0.05,VWS V14.00,2013-02-03 01:57:00,
2013-02-02 21:02:00,36.2,34.6,30.15,WSW,254,13.0,14.0,94,0.01,,---,0.05,VWS V14.00,2013-02-03 02:02:00,
2013-02-02 21:07:00,36.3,34.7,30.15,West,268,6.0,16.0,94,0.01,,---,0.05,VWS V14.00,2013-02-03 02:07:00,
2013-02-02 21:12:00,36.4,34.8,30.15,WSW,252,9.0,12.0,94,0.01,,---,0.05,VWS V14.00,2013-02-03 02:12:00,
2013-02-02 21:17:00,36.5,34.9,30.15,SW,236,8.0,9.0,94,0.01,,---,0.05,VWS V14.00,2013-02-03 02:17:00,
2013-02-02 21:22:00,36.6,35.0,30.15,SW,219,8.0,12.0,94,0.00,,---,0.05,VWS V14.00,2013-02-03 02:22:00,
2013-02-02 21:27:00,36.7,35.1,30.15,WSW,257,3.0,4.0,94,0.00,,---,0.05,VWS V14.00,2013-02-03 02:27:00,
2013-02-02 21:32:00,36.8,35.2,30.15,West,279,7.0,10.0,94,0.00,,---,0.05,VWS V14.00,2013-02-03 02:32:00,
2013-02-02 21:37:00,36.9,35.3,30.15,WSW,256,8.0,13.0,94,0.00,,---,0.05,VWS V14.00,2013-02-03 02:37:00,
2013-02-02 21:42:00,37.0,35.4,30.15,West,269,6.0,9.0,94,0.00,,---,0.05,VWS V14.00,2013-02-03 02:42:00,
2013-02-02 21:47:00,37.1,35.5,30.15,WSW,252,8.0,8.0,94,0.00,,---,0.05,VWS V14.00,2013-02-03 02:47:00,
2013-02-02 21:52:00,37.2,35.6,30.15,SW,214,2.0,7.0,94,0.00,,---,0.05,VWS V14.00,2013-02-03 02:52:00,
2013-02-02 21:57:00,37.3,35.7,30.14,WSW,248,5.0,10.0,94,0.00,,---,0.05,VWS V14.00,2013-02-03 02:57:00,
2013-02-02 22:02:00,37.4,35.8,30.14,WSW,257,5.0,10.0,94,0.00,,---,0.05,VWS V14.00,2013-02-03 03:02:00,
2013-02-02 22:07:00,37.5,35.9,30.14,West,263,13.0,13.0,94,0.00,,---,0.05,VWS V14.00,2013-02-03 03:07:00,
2013-02-02 22:12:00,37.6,36.0,30.13,West,273,8.0,11.0,94,0.00,,---,0.05,VWS V14.00,2013-02-03 03:12:00,
2013-02-02 22:17:00,37.7,36.1,30.13,WSW,244,9.0,11.0,94,0.00,,---,0.05,VWS V14.00,2013-02-03 03:17:00,
2013-02-02 22:22:00,37.7,36.1,30.13,SW,234,6.0,11.0,94,0.00,,---,0.05,VWS V14.00,2013-02-03 03:22:00,
2013-02-02 22:27:00,37.8,36.2,30.12,West,259,8.0,9.0,94,0.00,,---,0.05,VWS V14.00,2013-02-03 03:27:00,
2013-02-02 22:32:00,37.9,36.3,30.12,WNW,282,5.0,7.0,94,0.00,,---,0.05,VWS V14.00,2013-02-03 03:32:00,
2013-02-02 22:37:00,37.9,36.3,30.12,WSW,244,5.0,12.0,94,0.00,,---,0.05,VWS V14.00,2013-02-03 03:37:00,
2013-02-02 22:42:00,38.0,36.4,30.11,WSW,252,6.0,6.0,94,0.00,,---,0.05,VWS V14.00,2013-02-03 03:42:00,
2013-02-02 22:47:00,38.0,36.4,30.11,WSW,240,10.0,15.0,94,0.00,,---,0.05,VWS V14.00,2013-02-03 03:47:00,
2013-02-02 22:52:00,38.1,36.5,30.11,WNW,296,6.0,14.0,94,0.00,,---,0.05,VWS V14.00,2013-02-03 03:52:00,
2013-02-02 22:57:00,38.2,36.6,30.11,WSW,258,9.0,10.0,94,0.00,,---,0.05,VWS V14.00,2013-02-03 03:57:00,
2013-02-02 23:02:00,38.3,36.7,30.11,WSW,253,6.0,8.0,94,0.00,,---,0.05,VWS V14.00,2013-02-03 04:02:00,
2013-02-02 23:07:00,38.3,36.7,30.11,WSW,237,4.0,13.0,94,0.00,,---,0.05,VWS V14.00,2013-02-03 04:07:00,
2013-02-02 23:12:00,38.4,36.6,30.10,West,281,5.0,16.0,93,0.00,,---,0.05,VWS V14.00,2013-02-03 04:12:00,
2013-02-02 23:17:00,38.4,36.6,30.10,WSW,247,11.0,14.0,93,0.00,,---,0.05,VWS V14.00,2013-02-03 04:17:00,
2013-02-02 23:22:00,38.5,36.7,30.10,WSW,248,13.0,13.0,93,0.00,,---,0.05,VWS V14.00,2013-02-03 04:22:00,
2013-02-02 23:27:00,38.5,36.7,30.10,SW,235,12.0,15.0,93,0.00,,---,0.05,VWS V14.00,2013-02-03 04:27:00,
2013-02-02 23:32:00,38.5,36.7,30.09,SW,232,12.0,14.0,93,0.00,,---,0.05,VWS V14.00,2013-02-03 04:32:00,
2013-02-02 23:37:00,38.6,36.8,30.09,SW,225,9.0,13.0,93,0.00,,---,0.05,VWS V14.00,2013-02-03 04:37:00,
2013-02-02 23:42:00,38.6,36.8,30.09,West,263,4.0,9.0,93,0.00,,---,0.05,VWS V14.00,2013-02-03 04:42:00,
2013-02-02 23:47:00,38.7,36.8,30.08,SSW,209,7.0,12.0,93,0.00,,---,0.05,VWS V14.00,2013-02-03 04:47:00,
2013-02-02 23:52:00,38.7,36.8,30.08,West,273,4.0,17.0,93,0.00,,---,0.05,VWS V14.00,2013-02-03 04:52:00,
2013-02-02 23:57:00,38.7,36.8,30.08,SW,234,3.0,6.0,93,0.00,,---,0.05,VWS V14.00,2013-02-03 04:57:00,